This is the latest recevied weather packets stored in our database for station/object KB4MOX. If no packets are shown the sender has not sent any weather packets the latest 10 day(s).
| Time | Temp. | Humidity | Pressure | Rain* | Wind** | Luminosity | Snow |
|---|---|---|---|---|---|---|---|
| 1777742344 | 16.67° C | 81% | 1012.4 hPa | 0 mm | - | 328 W/m² | - |
| 1777742040 | 16.67° C | 82% | 1012.5 hPa | 0 mm | - | 178 W/m² | - |
| 1777741738 | 16.67° C | 82% | 1012.5 hPa | 0 mm | - | 237 W/m² | - |
| 1777741434 | 16.67° C | 81% | 1012.5 hPa | 0 mm | - | 117 W/m² | - |
| 1777741130 | 16.67° C | 82% | 1012.6 hPa | 0 mm | - | 133 W/m² | - |
| 1777740827 | 16.67° C | 81% | 1012.6 hPa | 0 mm | - | 288 W/m² | - |
| 1777740524 | 16.67° C | 81% | 1012.6 hPa | 0 mm | - | 209 W/m² | - |
| 1777740221 | 16.67° C | 84% | 1012.7 hPa | 0 mm | - | 163 W/m² | - |
| 1777739917 | 16.67° C | 83% | 1012.6 hPa | 0 mm | - | 230 W/m² | - |
| 1777739614 | 16.11° C | 84% | 1012.6 hPa | 0 mm | - | 287 W/m² | - |
| 1777739311 | 16.11° C | 83% | 1012.6 hPa | 0 mm | - | 150 W/m² | - |
| 1777739008 | 16.11° C | 83% | 1012.5 hPa | 0 mm | - | 142 W/m² | - |
| 1777738705 | 16.11° C | 84% | 1012.3 hPa | 0 mm | - | 200 W/m² | - |
| 1777738401 | 16.11° C | 83% | 1012.3 hPa | 0 mm | - | 197 W/m² | - |
| 1777738099 | 16.67° C | 85% | 1012.2 hPa | 0 mm | - | 184 W/m² | - |
| 1777737798 | 16.11° C | 84% | 1012.1 hPa | 0 mm | - | 215 W/m² | - |
| 1777737496 | 16.67° C | 85% | 1012.2 hPa | 0 mm | - | 206 W/m² | - |
| 1777737194 | 16.11° C | 87% | 1012.1 hPa | 0 mm | - | 300 W/m² | - |
| 1777736889 | 16.11° C | 86% | 1012.3 hPa | 0 mm | - | 280 W/m² | - |
| 1777736275 | 16.11° C | 87% | 1012.6 hPa | 0 mm | - | 301 W/m² | - |
| 1777735972 | 16.11° C | 88% | 1012.6 hPa | 0 mm | - | 227 W/m² | - |
| 1777735669 | 15.56° C | 91% | 1012.8 hPa | 0 mm | - | 280 W/m² | - |
| 1777735367 | 15.56° C | 90% | 1012.8 hPa | 0 mm | - | 312 W/m² | - |
| 1777735064 | 15.56° C | 91% | 1012.9 hPa | 0 mm | - | 180 W/m² | - |
| 1777734761 | 15.56° C | 92% | 1012.6 hPa | 0 mm | - | 145 W/m² | - |
* Rain latest hour (hover to see other rain measurements)
** Current wind speed in m/s (hover to see current wind gust speed)